Columbia, MO

10:37 PM CDT on June 22, 2017 (GMT -0500)
Columbia Regional

Weather History for KCOU - June, 2013

Change the Weather History Date:

Thursday, June 6, 2013

  Actual Average Record
Temperature  
Mean Temperature 67 °F 70 °F  
Max Temperature 76 °F 80 °F 96 °F (1934)
Min Temperature 58 °F 60 °F 43 °F (1894)
Degree Days  
Heating Degree Days 0 1  
Month to date heating degree days 6 6  
Since 1 June heating degree days 6 6  
Since 1 July heating degree days 4902 5018  
Cooling Degree Days 2 6  
Month to date cooling degree days 5 33  
Year to date cooling degree days 139 136  
Since 1 June cooling degree days 5 33  
Growing Degree Days 18 (Base 50)    
Moisture  
Dew Point 58 °F    
Average Humidity 73    
Maximum Humidity 100    
Minimum Humidity 46    
Precipitation  
Precipitation 0.00 in 0.15 in 3.21 in (1993)
Month to date precipitation 0.16 0.90  
Year to date precipitation 26.87 17.45  
Snow  
Snow 0.00 in 0.00 in 0.00 in (2015)
Month to date snowfall 0.0 0.0  
Since 1 June snowfall 0.0 0.0  
Since 1 July snowfall 35.0 18.0  
Snow Depth 0.00 in    
Sea Level Pressure  
Sea Level Pressure 29.90 in    
Wind  
Wind Speed 8 mph (NNW)    
Max Wind Speed 15 mph    
Max Gust Speed 18 mph    
Visibility 7 miles    
Events      
T = Trace of Precipitation, MM = Missing Value Source: NWS Daily Summary

Daily Weather History Graph

Daily Weather History Graph

Search for Another Location

Airport or City:

Trip Planner

Search our weather history database for the weather conditions in past years. The results will help you decide how hot, cold, wet, or windy it might be!

Date:

Astronomy

Jun. 06, 2013 Rise Set
Actual Time 5:44 AM CDT 8:31 PM CDT
Civil Twilight 5:12 AM CDT 9:03 PM CDT
Nautical Twilight 4:32 AM CDT 9:42 PM CDT
Astronomical Twilight 3:47 AM CDT 10:28 PM CDT
Moon 4:24 AM CDT (6/6) 6:54 PM CDT (6/6)
Length of Visible Light 15h 50m
Length of Day
14h 47m
Waning Crescent, 3% of the Moon is Illuminated
Jun 6
Waning Crescent
Jun 8
New
Jun 16
First Quarter
Jun 23
Full
Jun 29
Last Quarter

Hourly Weather History & Observations

Time (CDT) Temp. Dew Point Humidity Pressure Visibility Wind Dir Wind Speed Gust Speed Precip Events Conditions
12:54 AM 63.0 °F 60.1 °F 90% 29.91 in 10.0 mi WNW 5.8 mph - N/A   Overcast
1:54 AM 61.0 °F 60.1 °F 97% 29.89 in 5.0 mi WNW 5.8 mph - N/A   Clear
2:29 AM 61.0 °F 60.1 °F 97% 29.89 in 2.5 mi NW 4.6 mph - N/A   Partly Cloudy
2:41 AM 62.1 °F 61.0 °F 96% 29.89 in 1.8 mi NW 5.8 mph - N/A   Mostly Cloudy
2:54 AM 63.0 °F 62.1 °F 97% 29.87 in 0.8 mi NNW 8.1 mph - N/A   Mist
3:34 AM 63.0 °F 62.1 °F 97% 29.88 in 1.5 mi North 8.1 mph - N/A   Overcast
3:43 AM 63.0 °F 62.1 °F 97% 29.88 in 2.5 mi NNW 6.9 mph - N/A   Overcast
3:54 AM 62.1 °F 61.0 °F 96% 29.87 in 2.5 mi NNW 6.9 mph - N/A   Mostly Cloudy
4:24 AM 63.0 °F 62.1 °F 97% 29.89 in 3.0 mi NNW 6.9 mph - N/A   Overcast
4:54 AM 63.0 °F 62.1 °F 97% 29.89 in 4.0 mi North 8.1 mph - N/A   Overcast
5:54 AM 63.0 °F 62.1 °F 97% 29.91 in 4.0 mi North 6.9 mph - N/A   Overcast
6:19 AM 63.0 °F 61.0 °F 93% 29.92 in 4.0 mi North 8.1 mph - N/A   Mostly Cloudy
6:34 AM 63.0 °F 61.0 °F 93% 29.92 in 4.0 mi North 3.5 mph - N/A   Partly Cloudy
6:54 AM 64.0 °F 62.1 °F 93% 29.91 in 4.0 mi NW 5.8 mph - N/A   Partly Cloudy
7:08 AM 64.0 °F 62.1 °F 93% 29.92 in 4.0 mi NNW 8.1 mph - N/A   Partly Cloudy
7:43 AM 64.0 °F 61.0 °F 90% 29.92 in 6.0 mi NNW 9.2 mph - N/A   Mostly Cloudy
7:54 AM 64.9 °F 61.0 °F 87% 29.91 in 8.0 mi NNW 8.1 mph - N/A   Mostly Cloudy
8:07 AM 66.0 °F 61.0 °F 84% 29.92 in 9.0 mi NNW 9.2 mph - N/A   Mostly Cloudy
8:54 AM 66.9 °F 60.1 °F 79% 29.91 in 10.0 mi NNW 9.2 mph - N/A   Scattered Clouds
9:54 AM 66.9 °F 57.0 °F 70% 29.91 in 10.0 mi North 8.1 mph - N/A   Overcast
10:54 AM 69.1 °F 57.0 °F 65% 29.91 in 10.0 mi NNW 10.4 mph - N/A   Overcast
11:54 AM 72.0 °F 55.9 °F 57% 29.91 in 10.0 mi North 10.4 mph - N/A   Scattered Clouds
12:54 PM 73.9 °F 54.0 °F 50% 29.90 in 10.0 mi NNW 11.5 mph - N/A   Partly Cloudy
1:54 PM 73.0 °F 53.1 °F 49% 29.90 in 10.0 mi NNW 8.1 mph - N/A   Mostly Cloudy
2:54 PM 73.9 °F 52.0 °F 46% 29.90 in 10.0 mi North 6.9 mph - N/A   Mostly Cloudy
3:54 PM 75.0 °F 53.1 °F 46% 29.89 in 10.0 mi WNW 9.2 mph 18.4 mph N/A   Overcast
4:54 PM 73.0 °F 54.0 °F 51% 29.89 in 10.0 mi NNW 11.5 mph - N/A   Overcast
5:54 PM 73.0 °F 54.0 °F 51% 29.88 in 10.0 mi NNW 11.5 mph - N/A   Overcast
6:54 PM 71.1 °F 55.0 °F 57% 29.87 in 10.0 mi NNW 8.1 mph - N/A   Overcast
7:54 PM 70.0 °F 55.9 °F 61% 29.88 in 10.0 mi NNW 6.9 mph - N/A   Clear
8:54 PM 66.0 °F 55.0 °F 68% 29.90 in 10.0 mi NNW 6.9 mph - N/A   Partly Cloudy
9:54 PM 63.0 °F 55.0 °F 75% 29.91 in 10.0 mi NNW 4.6 mph - N/A   Clear
10:54 PM 63.0 °F 53.1 °F 70% 29.92 in 10.0 mi North 8.1 mph - N/A   Clear
11:54 PM 60.1 °F 53.1 °F 78% 29.92 in 10.0 mi NNW 6.9 mph - N/A   Clear